Carlyle Lake Weather Center

Moon Phase Calendar



Carlyle Lake Water Level
Online Cameras

 


      

Current Conditions in Carlyle
5/28/2024 1:26:19 AM

64°F
Feels Like 64
Clear
Humidity
90%
Pressure
29.94"
Wind
6.1 mph (WNW)
Dew Point
61°F
UV Index
0/10 (Low)
Visibility
6 mi

Hourly Forecast

Date & Time Tue, May 28
1:00 AM
Tue, May 28
2:00 AM
Tue, May 28
3:00 AM
Tue, May 28
4:00 AM
Tue, May 28
5:00 AM
Tue, May 28
6:00 AM
Tue, May 28
7:00 AM
Tue, May 28
8:00 AM
Tue, May 28
9:00 AM
Tue, May 28
10:00 AM
Tue, May 28
11:00 AM
Tue, May 28
12:00 PM
Tue, May 28
1:00 PM
Tue, May 28
2:00 PM
Tue, May 28
3:00 PM
Tue, May 28
4:00 PM
Tue, May 28
5:00 PM
Tue, May 28
6:00 PM
Tue, May 28
7:00 PM
Tue, May 28
8:00 PM
Tue, May 28
9:00 PM
Tue, May 28
10:00 PM
Tue, May 28
11:00 PM
Wed, May 29
12:00 AM
Wed, May 29
1:00 AM
Wed, May 29
2:00 AM
Wed, May 29
3:00 AM
Wed, May 29
4:00 AM
Wed, May 29
5:00 AM
Wed, May 29
6:00 AM
Wed, May 29
7:00 AM
Wed, May 29
8:00 AM
Wed, May 29
9:00 AM
Wed, May 29
10:00 AM
Wed, May 29
11:00 AM
Wed, May 29
12:00 PM
Wed, May 29
1:00 PM
Wed, May 29
2:00 PM
Wed, May 29
3:00 PM
Wed, May 29
4:00 PM
Wed, May 29
5:00 PM
Wed, May 29
6:00 PM
Wed, May 29
7:00 PM
Wed, May 29
8:00 PM
Wed, May 29
9:00 PM
Wed, May 29
10:00 PM
Wed, May 29
11:00 PM
Thu, May 30
12:00 AM
Condition
Clear

Clear

Clear

Clouds

Clouds

Clouds

Clouds

Clear

Clear

Clear

Clear

Clear

Clear

Clear

Clear

Clear

Clear

Clear

Clear

Clear

Clear

Clear

Clear

Clear

Clear

Clear

Clear

Clear

Clear

Clear

Clear

Clear

Clear

Clear

Clear

Clear

Clear

Clear

Clouds

Clouds

Clouds

Clouds

Clouds

Clear

Clear

Clear

Clear

Clear
Temperature 64°F63°F63°F63°F61°F59°F61°F65°F68°F70°F72°F73°F73°F74°F74°F74°F74°F72°F69°F65°F63°F62°F60°F59°F58°F56°F55°F54°F54°F54°F56°F59°F62°F65°F67°F69°F70°F71°F72°F72°F70°F68°F66°F62°F60°F58°F58°F57°F
Feels Like 64°F64°F63°F63°F61°F59°F61°F65°F67°F69°F71°F72°F73°F73°F73°F73°F74°F72°F69°F65°F62°F61°F60°F58°F58°F56°F55°F54°F53°F53°F55°F59°F62°F64°F66°F68°F69°F70°F71°F71°F69°F68°F66°F61°F59°F57°F57°F56°F
Cloudiness 5%4%7%18%17%16%14%0%0%0%0%0%0%0%0%0%0%0%0%1%3%2%2%2%10%0%0%0%0%1%1%5%6%5%4%4%4%5%11%16%15%19%15%0%0%0%0%0%
Visibility 6 mi6 mi6 mi6 mi6 mi6 mi6 mi6 mi6 mi6 mi6 mi6 mi6 mi6 mi6 mi6 mi6 mi6 mi6 mi6 mi6 mi6 mi6 mi6 mi6 mi6 mi6 mi6 mi6 mi6 mi6 mi6 mi6 mi6 mi6 mi6 mi6 mi6 mi6 mi6 mi6 mi6 mi6 mi6 mi6 mi6 mi6 mi6 mi
Precipitation 0%0%0%0%0%0%0%0%0%0%0%0%0%0%0%0%0%0%0%18%0%0%0%0%0%0%0%0%0%0%0%0%0%0%0%0%0%0%0%0%0%0%0%0%0%0%0%0%
Humidity 90%89%89%86%89%93%89%78%70%62%58%55%54%54%52%51%57%61%68%76%77%78%82%86%86%89%90%92%92%92%88%80%73%66%61%56%52%49%48%48%53%60%67%72%73%75%73%72%
Dew Point 61°F60°F60°F59°F58°F56°F58°F58°F57°F56°F56°F56°F56°F56°F55°F55°F58°F58°F58°F57°F55°F55°F54°F54°F54°F53°F53°F52°F52°F51°F52°F53°F54°F53°F53°F52°F52°F51°F51°F51°F52°F54°F55°F53°F51°F50°F49°F48°F
Pressure 29.94"29.94"29.94"29.94"29.97"30"30"30.03"30.03"30.03"30.03"30.03"30.03"30.03"30.03"30.03"30.03"30.03"30.03"30.03"30.03"30.06"30.06"30.06"30.09"30.09"30.09"30.09"30.12"30.12"30.15"30.18"30.18"30.18"30.18"30.18"30.18"30.15"30.15"30.15"30.15"30.12"30.12"30.15"30.15"30.18"30.15"30.15"
Wind Speed 6.1 mph6.8 mph6.3 mph6.2 mph7.1 mph7.3 mph7.2 mph10.7 mph11.5 mph13.5 mph15 mph17.1 mph17.6 mph17.1 mph16.1 mph15.6 mph13.5 mph12.9 mph8.4 mph6.9 mph6.6 mph7.3 mph7.8 mph7.7 mph8.2 mph8.7 mph7 mph4.8 mph5.4 mph6.6 mph7.2 mph8.5 mph8.4 mph8.1 mph7.4 mph7.1 mph6.9 mph6.8 mph6.8 mph9.1 mph11 mph9.4 mph5.9 mph5.6 mph5.6 mph5 mph5.9 mph6.1 mph
Wind
Direction
288°
WNW
271°
W
263°
W
272°
W
265°
W
275°
W
279°
W
297°
WNW
295°
WNW
297°
WNW
295°
WNW
297°
WNW
302°
WNW
306°
NW
308°
NW
308°
NW
304°
NW
305°
NW
290°
WNW
299°
WNW
317°
NW
323°
NW
327°
NNW
330°
NNW
326°
NW
339°
NNW
335°
NNW
315°
NW
320°
NW
338°
NNW
349°
N
345°
NNW
347°
NNW
352°
N
349°
N
353°
N
352°
N
352°
N
353°
N
11°
N
25°
NNE
30°
NNE
36°
NE
47°
NE
57°
ENE
64°
ENE
63°
ENE
62°
ENE

Daily Forecast

Date High Low Precip. Humidity
Today
May 28

Clear
74 °F
59 °F
18%
55%
Wednesday
May 29

Clear
72 °F
54 °F
0%
56%
Thursday
May 30

Clear
73 °F
52 °F
0%
52%
Friday
May 31

Rain
72 °F
55 °F
75%
50%
Saturday
Jun 1

Rain
77 °F
62 °F
100%
78%
Sunday
Jun 2

Rain
83 °F
63 °F
100%
60%
Monday
Jun 3

Rain
84 °F
67 °F
100%
62%
Tuesday
Jun 4

Rain
85 °F
69 °F
100%
62%
Wednesday
Jun 5

Rain
87 °F
68 °F
100%
61%
Thursday
Jun 6

Clear
77 °F
60 °F
0%
50%
Friday
Jun 7

Rain
83 °F
62 °F
100%
68%
Saturday
Jun 8

Clouds
76 °F
60 °F
0%
49%
Sunday
Jun 9

Clouds
79 °F
64 °F
0%
48%
Monday
Jun 10

Clouds
82 °F
62 °F
0%
48%
Tuesday
Jun 11

Rain
85 °F
68 °F
100%
66%
Wednesday
Jun 12

Clear
90 °F
67 °F
0%
39%

Temperature 8-14 Day Outlook



Precipitation 8-14 Day Outlook






About Us
Contact Us
Site Map
Search Site
Advertise With Us
   
Carlyle.USLakes.info
THE CARLYLE LAKE WEBSITE

Copyright 2024, Lakes Online
Privacy    |    Legal